Location: Forst
(46.9333°N, 15.4333°E)
Time: 06:41:57
(UTC+00:00)

NOSS 3-2 (C) - Pass Details

Date: 01 December 2020
Orbit: 789 x 1424 km, 63.4° (Epoch: 09 January)

Event Time Altitude Azimuth Distance (km) Brightness Sun altitude
Rises 18:08:41 0° 213° (SSW) 3,333 6.7 -29.5°
Reaches altitude 10° 18:11:00 10° 212° (SSW) 2,448 6.0 -29.9°
Enters shadow 18:15:13 54° 202° (SSW) 1,076 3.7 -30.6°
